Location: New Canada
(47.1017°N, 68.5042°W)
Time: 02:31:29
(UTC+00:00)

COSMOS 1818 DEB - Pass Details

Date: 01 December 2023
Orbit: 754 x 785 km, 65.0° (Epoch: 12 November)

Event Time Altitude Azimuth Distance (km) Brightness Sun altitude
Rises 21:23:50 0° 242° (WSW) 3,247 ? -6.4°
Reaches altitude 10° 21:26:24 10° 250° (WSW) 2,327 ? -6.8°
Maximum altitude 21:31:22 38° 318° (NW) 1,188 ? -7.6°
Drops below altitude 10° 21:36:23 10° 26° (NNE) 2,349 ? -8.3°
Enters shadow 21:37:44 - 32° (NNE) 2,827 ? -8.5°
